DLH29H EINN-EDDM

Flight info

Callsign DLH29H
Flight time N/A
Altitude 41000
Route ABAGU3A ABAGU DCT ENJEX DCT AVZAC DCT ICOSA DCT RUHUN DCT UNZIB DCT NUCHU L607 KONAN DCT KOK UL607 MATUG DCT MOVUM T109 HAREM/N0490F350 T104 ELMOX/N0471F270 T104 ROKIL ROKIL1A
Aircraft A359/H-SDE2E3GHIJ3J4J5LM1ORWXY/LB1D1

Departure

Time N/A
Airport Shannon Airport (EINN)

Arrival

Time 2026-04-30 21:28
Airport Munich Airport (EDDM)
Time Latitude Longitude Altitude Speed Heading
2026-04-30 19:42 51.47116 -1.70009 41164 ft 478 kts 99°
2026-04-30 19:42 51.46739 -1.66477 41166 ft 477 kts 102°
2026-04-30 19:44 51.43249 -1.40398 41171 ft 477 kts 103°
2026-04-30 19:44 51.41803 -1.30025 41175 ft 477 kts 103°
2026-04-30 19:45 51.40365 -1.19726 41173 ft 477 kts 103°
2026-04-30 19:45 51.39379 -1.09214 41183 ft 478 kts 97°
2026-04-30 19:46 51.38766 -0.98588 41181 ft 479 kts 96°
2026-04-30 19:46 51.38230 -0.87962 41188 ft 479 kts 96°
2026-04-30 19:47 51.37692 -0.77347 41181 ft 479 kts 95°
2026-04-30 19:47 51.37156 -0.66708 41176 ft 479 kts 96°
2026-04-30 19:48 51.36905 -0.61875 41180 ft 479 kts 96°
2026-04-30 19:48 51.36330 -0.51245 41186 ft 479 kts 96°
2026-04-30 19:49 51.35836 -0.42416 41188 ft 480 kts 96°
2026-04-30 19:49 51.34923 -0.26460 41187 ft 480 kts 96°
2026-04-30 19:50 51.34304 -0.15829 41208 ft 480 kts 96°
2026-04-30 19:50 51.33676 -0.05202 41211 ft 480 kts 96°
2026-04-30 19:51 51.33034 0.05434 41211 ft 480 kts 97°
2026-04-30 19:51 51.32127 0.15953 41209 ft 480 kts 100°
2026-04-30 19:52 51.31051 0.26461 41211 ft 479 kts 100°
2026-04-30 19:52 51.29991 0.36988 41163 ft 479 kts 100°
2026-04-30 19:53 51.28964 0.47507 41162 ft 479 kts 99°
2026-04-30 19:53 51.27940 0.58034 41165 ft 479 kts 99°
2026-04-30 19:54 51.26909 0.68544 41176 ft 478 kts 100°
2026-04-30 19:54 51.25866 0.79036 41184 ft 478 kts 100°
2026-04-30 19:55 51.24817 0.89506 41203 ft 477 kts 100°
2026-04-30 19:55 51.23762 0.99950 41202 ft 476 kts 100°
2026-04-30 19:56 51.22707 1.10292 41207 ft 475 kts 100°
2026-04-30 19:56 51.21635 1.20696 41208 ft 475 kts 100°
2026-04-30 19:57 51.20548 1.31115 41211 ft 475 kts 100°
2026-04-30 19:57 51.19459 1.41503 41213 ft 475 kts 100°
2026-04-30 19:58 51.18362 1.51882 41214 ft 474 kts 100°
2026-04-30 19:58 51.17256 1.62240 41211 ft 474 kts 100°
2026-04-30 19:59 51.16146 1.72535 41212 ft 474 kts 100°
2026-04-30 20:00 51.14453 1.88074 41212 ft 474 kts 100°
2026-04-30 20:00 51.13316 1.98429 41212 ft 474 kts 100°
2026-04-30 20:00 51.12997 2.03596 41206 ft 462 kts 92°
2026-04-30 20:01 51.14014 2.13335 41209 ft 435 kts 70°
2026-04-30 20:01 51.15407 2.17526 41207 ft 425 kts 56°
2026-04-30 20:01 51.17348 2.20968 41217 ft 424 kts 42°
2026-04-30 20:02 51.22485 2.25550 41225 ft 428 kts 19°
2026-04-30 20:02 51.25397 2.26648 41230 ft 430 kts
2026-04-30 20:03 51.31349 2.26313 41226 ft 431 kts 347°
2026-04-30 20:03 51.34191 2.24789 41230 ft 431 kts 335°
2026-04-30 20:03 51.36790 2.22383 41229 ft 431 kts 323°
2026-04-30 20:03 51.39020 2.19187 41231 ft 431 kts 311°
2026-04-30 20:04 51.40816 2.15359 41230 ft 430 kts 300°
2026-04-30 20:04 51.42095 2.11049 41231 ft 428 kts 288°
2026-04-30 20:05 51.43692 1.97068 41230 ft 427 kts 276°
2026-04-30 20:05 51.44421 1.82858 41230 ft 425 kts 265°
2026-04-30 20:06 51.43127 1.73707 41227 ft 421 kts 244°
2026-04-30 20:06 51.41704 1.69632 41228 ft 419 kts 233°
2026-04-30 20:06 51.39822 1.66113 41225 ft 417 kts 222°
2026-04-30 20:07 51.37537 1.63239 41223 ft 415 kts 211°
2026-04-30 20:07 51.34972 1.61144 41223 ft 414 kts 200°
2026-04-30 20:07 51.29373 1.59454 41221 ft 411 kts 179°
2026-04-30 20:08 51.26522 1.59899 41219 ft 410 kts 168°
2026-04-30 20:08 51.21260 1.63282 41215 ft 410 kts 147°
2026-04-30 20:08 51.19022 1.66089 41216 ft 410 kts 136°
2026-04-30 20:09 51.17148 1.69527 41214 ft 411 kts 126°
2026-04-30 20:09 51.15714 1.73461 41213 ft 412 kts 115°
2026-04-30 20:09 51.14233 1.82216 41216 ft 414 kts 100°
2026-04-30 20:10 51.13242 1.95897 41213 ft 415 kts 97°
2026-04-30 20:11 51.13625 2.09627 41213 ft 418 kts 75°
2026-04-30 20:11 51.14677 2.13959 41215 ft 420 kts 64°
2026-04-30 20:11 51.16240 2.17884 41214 ft 421 kts 52°
2026-04-30 20:12 51.20721 2.23908 41220 ft 425 kts 29°
2026-04-30 20:12 51.23445 2.25735 41223 ft 427 kts 17°
2026-04-30 20:12 51.26362 2.26667 41226 ft 428 kts
2026-04-30 20:13 51.29342 2.26646 41227 ft 429 kts 354°
2026-04-30 20:13 51.32224 2.25696 41228 ft 430 kts 342°
2026-04-30 20:13 51.34979 2.23844 41227 ft 430 kts 331°
2026-04-30 20:13 51.37446 2.21151 41230 ft 430 kts 319°
2026-04-30 20:14 51.39538 2.17738 41231 ft 429 kts 308°
2026-04-30 20:14 51.41144 2.13740 41231 ft 428 kts 295°
2026-04-30 20:14 51.42206 2.09305 41234 ft 426 kts 284°
2026-04-30 20:15 51.43240 1.99960 41234 ft 425 kts 276°
2026-04-30 20:15 51.43925 1.90549 41230 ft 426 kts 275°
2026-04-30 20:16 51.43696 1.81179 41229 ft 420 kts 250°
2026-04-30 20:16 51.42398 1.77046 41227 ft 416 kts 232°
2026-04-30 20:16 51.40370 1.73797 41230 ft 412 kts 213°
2026-04-30 20:16 51.37827 1.71769 41226 ft 409 kts 195°
2026-04-30 20:17 51.35029 1.71154 41222 ft 407 kts 177°
2026-04-30 20:17 51.32261 1.72011 41226 ft 406 kts 159°
2026-04-30 20:17 51.29769 1.74114 41227 ft 407 kts 147°
2026-04-30 20:18 51.25230 1.79823 41224 ft 425 kts 137°
2026-04-30 20:18 51.21162 1.86840 41220 ft 443 kts 130°
2026-04-30 20:19 51.17391 1.94868 41219 ft 460 kts 126°
2026-04-30 20:19 51.13797 2.03501 41214 ft 472 kts 123°
2026-04-30 20:20 51.10312 2.12394 41211 ft 474 kts 121°
2026-04-30 20:20 51.07737 2.22002 41217 ft 474 kts 107°
2026-04-30 20:21 51.06322 2.32198 41217 ft 475 kts 101°
2026-04-30 20:21 51.05240 2.42564 41220 ft 476 kts 100°
2026-04-30 20:22 51.04159 2.52954 41228 ft 476 kts 101°
2026-04-30 20:22 51.03017 2.63334 41231 ft 477 kts 101°
2026-04-30 20:23 51.01838 2.73721 41232 ft 477 kts 101°
2026-04-30 20:23 51.00645 2.84104 41236 ft 478 kts 101°
2026-04-30 20:24 50.99445 2.94483 41236 ft 478 kts 101°
2026-04-30 20:24 50.98241 3.04829 41237 ft 479 kts 101°
2026-04-30 20:25 50.96408 3.20431 41241 ft 480 kts 101°
2026-04-30 20:26 50.94551 3.36034 41244 ft 479 kts 101°
2026-04-30 20:26 50.92678 3.51596 41250 ft 478 kts 101°
2026-04-30 20:27 50.89678 3.72042 41255 ft 477 kts 106°
2026-04-30 20:28 50.86176 3.90474 41261 ft 476 kts 107°
2026-04-30 20:30 50.81477 4.14407 41280 ft 475 kts 107°
2026-04-30 20:31 50.75555 4.44260 41286 ft 474 kts 107°
2026-04-30 20:32 50.70611 4.69016 41281 ft 474 kts 106°
2026-04-30 20:33 50.67736 4.83948 41278 ft 474 kts 106°
2026-04-30 20:34 50.64810 4.98846 41283 ft 474 kts 107°
2026-04-30 20:35 50.61734 5.13663 41288 ft 475 kts 107°
2026-04-30 20:35 50.58643 5.28498 41291 ft 475 kts 107°
2026-04-30 20:36 50.56585 5.38370 41292 ft 475 kts 107°
2026-04-30 20:37 50.53496 5.53096 41290 ft 475 kts 107°
2026-04-30 20:37 50.51524 5.62992 41290 ft 474 kts 103°
2026-04-30 20:38 50.50059 5.73077 41293 ft 474 kts 101°
2026-04-30 20:38 50.48719 5.83215 41293 ft 473 kts 101°
2026-04-30 20:39 50.46746 5.98392 41296 ft 473 kts 101°
2026-04-30 20:40 50.44739 6.13612 41300 ft 482 kts 101°
2026-04-30 20:40 50.43369 6.23912 41300 ft 486 kts 101°
2026-04-30 20:41 50.41088 6.39424 41299 ft 488 kts 105°
2026-04-30 20:41 50.39116 6.49582 41298 ft 487 kts 105°
2026-04-30 20:42 50.37057 6.59692 41305 ft 487 kts 106°
2026-04-30 20:43 50.33901 6.74822 41322 ft 487 kts 106°
2026-04-30 20:43 50.31789 6.84878 41337 ft 487 kts 106°
2026-04-30 20:44 50.28602 6.99983 41344 ft 487 kts 106°
2026-04-30 20:45 50.24331 7.20065 41349 ft 487 kts 106°
2026-04-30 20:45 50.22180 7.30102 41340 ft 487 kts 106°
2026-04-30 20:46 50.17865 7.50086 41350 ft 487 kts 106°
2026-04-30 20:47 50.14598 7.65092 41335 ft 487 kts 106°
2026-04-30 20:48 50.11305 7.80106 41343 ft 487 kts 106°
2026-04-30 20:48 50.09102 7.90088 41349 ft 487 kts 106°
2026-04-30 20:49 50.06893 8.00054 41345 ft 487 kts 106°
2026-04-30 20:50 50.03592 8.14851 41348 ft 486 kts 106°
2026-04-30 20:50 50.01380 8.24711 41349 ft 486 kts 106°
2026-04-30 20:51 49.99137 8.34667 41351 ft 486 kts 106°
2026-04-30 20:51 49.95756 8.49527 41349 ft 486 kts 108°
2026-04-30 20:52 49.92748 8.58970 41349 ft 489 kts 115°
2026-04-30 20:53 49.87718 8.72684 41347 ft 490 kts 117°
2026-04-30 20:53 49.84309 8.81835 41346 ft 490 kts 117°
2026-04-30 20:54 49.79182 8.95552 41349 ft 490 kts 116°
2026-04-30 20:55 49.74056 9.09247 41348 ft 490 kts 116°
2026-04-30 20:55 49.70651 9.18305 41351 ft 490 kts 116°
2026-04-30 20:56 49.65496 9.31962 41352 ft 491 kts 116°
2026-04-30 20:57 49.60453 9.43926 41352 ft 496 kts 125°
2026-04-30 20:57 49.55966 9.52044 41350 ft 497 kts 127°
2026-04-30 20:58 49.49107 9.63946 41350 ft 497 kts 128°
2026-04-30 20:58 49.44506 9.71926 41348 ft 498 kts 127°
2026-04-30 20:59 49.37644 9.83840 40686 ft 491 kts 127°
2026-04-30 21:00 49.33101 9.91691 38994 ft 491 kts 126°
2026-04-30 21:00 49.28565 9.99488 36793 ft 488 kts 126°
2026-04-30 21:01 49.24106 10.07133 34804 ft 489 kts 127°
2026-04-30 21:01 49.21826 10.11045 33824 ft 495 kts 127°
2026-04-30 21:01 49.17225 10.18884 32043 ft 495 kts 127°
2026-04-30 21:02 49.14914 10.22795 30963 ft 495 kts 127°
2026-04-30 21:02 49.12585 10.26729 30315 ft 499 kts 127°
2026-04-30 21:02 49.10237 10.30573 29256 ft 492 kts 128°
2026-04-30 21:02 49.07890 10.34320 28043 ft 475 kts 129°
2026-04-30 21:03 49.05604 10.37923 27131 ft 475 kts 129°
2026-04-30 21:03 49.03308 10.41556 26383 ft 470 kts 129°
2026-04-30 21:03 49.01058 10.45117 25512 ft 467 kts 129°
2026-04-30 21:03 48.98822 10.48684 24735 ft 458 kts 129°
2026-04-30 21:04 48.96615 10.52203 23920 ft 460 kts 129°
2026-04-30 21:04 48.94433 10.55673 23044 ft 452 kts 129°
2026-04-30 21:04 48.90115 10.62519 21456 ft 447 kts 129°
2026-04-30 21:05 48.87976 10.65909 20669 ft 439 kts 129°
2026-04-30 21:05 48.85887 10.69218 19864 ft 424 kts 129°
2026-04-30 21:05 48.83921 10.72315 19116 ft 392 kts 129°
2026-04-30 21:05 48.82052 10.75265 18345 ft 393 kts 129°
2026-04-30 21:06 48.80165 10.78276 17559 ft 394 kts 129°
2026-04-30 21:06 48.78292 10.81263 16789 ft 379 kts 129°
2026-04-30 21:06 48.76476 10.84129 16066 ft 380 kts 130°
2026-04-30 21:06 48.74646 10.87015 15310 ft 380 kts 130°
2026-04-30 21:07 48.72830 10.89861 14558 ft 365 kts 130°
2026-04-30 21:07 48.71063 10.92621 13807 ft 366 kts 130°
2026-04-30 21:07 48.69293 10.95389 13029 ft 365 kts 130°
2026-04-30 21:07 48.67572 10.98077 12308 ft 352 kts 131°
2026-04-30 21:08 48.65926 11.00632 12036 ft 320 kts 131°
2026-04-30 21:08 48.64457 11.02894 11875 ft 283 kts 130°
2026-04-30 21:08 48.63145 11.04919 11752 ft 258 kts 130°
2026-04-30 21:08 48.61876 11.06903 11628 ft 265 kts 129°
2026-04-30 21:09 48.60591 11.08928 11507 ft 267 kts 129°
2026-04-30 21:09 48.59307 11.10941 11398 ft 265 kts 130°
2026-04-30 21:09 48.57962 11.12818 11273 ft 267 kts 137°
2026-04-30 21:09 48.56460 11.14475 11151 ft 268 kts 141°
2026-04-30 21:10 48.54903 11.16093 11006 ft 269 kts 141°
2026-04-30 21:10 48.53420 11.17762 10735 ft 264 kts 134°
2026-04-30 21:10 48.52317 11.19921 10403 ft 258 kts 114°
2026-04-30 21:10 48.51873 11.22516 10254 ft 262 kts 92°
2026-04-30 21:11 48.51981 11.25315 10215 ft 270 kts 85°
2026-04-30 21:11 48.51794 11.28132 10184 ft 274 kts 106°
2026-04-30 21:11 48.50813 11.30604 10156 ft 279 kts 130°
2026-04-30 21:11 48.49200 11.32250 10133 ft 286 kts 154°
2026-04-30 21:12 48.47268 11.33055 10113 ft 289 kts 164°
2026-04-30 21:12 48.45310 11.33615 10079 ft 289 kts 166°
2026-04-30 21:12 48.43330 11.34153 10057 ft 289 kts 166°
2026-04-30 21:12 48.41351 11.34689 9969 ft 289 kts 166°
2026-04-30 21:13 48.39397 11.35219 9517 ft 282 kts 166°
2026-04-30 21:13 48.37499 11.35732 8700 ft 274 kts 166°
2026-04-30 21:13 48.35641 11.36283 7791 ft 270 kts 162°
2026-04-30 21:13 48.33918 11.37301 6874 ft 264 kts 148°
2026-04-30 21:14 48.32948 11.38371 6240 ft 258 kts 134°
2026-04-30 21:14 48.31988 11.40572 5331 ft 250 kts 111°
2026-04-30 21:14 48.31316 11.42941 4363 ft 245 kts 117°
2026-04-30 21:14 48.30155 11.44743 3645 ft 240 kts 144°
2026-04-30 21:15 48.28560 11.45428 3498 ft 242 kts 168°
2026-04-30 21:15 48.26382 11.45474 3997 ft 233 kts 174°
2026-04-30 21:15 48.25263 11.45449 4132 ft 228 kts 174°
2026-04-30 21:15 48.23669 11.45416 4160 ft 229 kts 174°
2026-04-30 21:16 48.22075 11.45391 4157 ft 228 kts 173°
2026-04-30 21:16 48.20486 11.45359 4121 ft 229 kts 174°
2026-04-30 21:16 48.18896 11.45319 3893 ft 228 kts 174°
2026-04-30 21:16 48.17320 11.45302 3771 ft 224 kts 170°
2026-04-30 21:17 48.15853 11.45729 3759 ft 204 kts 153°
2026-04-30 21:17 48.14722 11.46762 3771 ft 179 kts 131°
2026-04-30 21:17 48.14033 11.48230 3787 ft 170 kts 111°
2026-04-30 21:17 48.13807 11.49946 3773 ft 170 kts 91°
2026-04-30 21:18 48.14070 11.51651 3771 ft 174 kts 70°
2026-04-30 21:18 48.14803 11.53103 3769 ft 180 kts 49°
2026-04-30 21:18 48.15936 11.53978 3772 ft 193 kts 19°
2026-04-30 21:18 48.17310 11.53835 3774 ft 205 kts 355°
2026-04-30 21:19 48.18667 11.53284 3764 ft 191 kts 352°
2026-04-30 21:19 48.19805 11.52760 3751 ft 161 kts 352°
2026-04-30 21:19 48.20825 11.52302 3719 ft 139 kts 355°
2026-04-30 21:19 48.21755 11.51933 3772 ft 140 kts 358°
2026-04-30 21:20 48.22710 11.51584 3780 ft 142 kts 358°
2026-04-30 21:20 48.23668 11.51232 3791 ft 142 kts 358°
2026-04-30 21:20 48.24629 11.50876 3793 ft 142 kts 357°
2026-04-30 21:20 48.25591 11.50519 3793 ft 142 kts 358°
2026-04-30 21:21 48.26554 11.50164 3791 ft 142 kts 357°
2026-04-30 21:21 48.27518 11.49808 3791 ft 142 kts 356°
2026-04-30 21:21 48.29421 11.49096 3791 ft 141 kts 356°
2026-04-30 21:22 48.30373 11.48754 3791 ft 139 kts 359°
2026-04-30 21:22 48.32057 11.50855 3798 ft 110 kts 80°
2026-04-30 21:23 48.32184 11.51974 3795 ft 108 kts 85°
2026-04-30 21:23 48.32286 11.53084 3796 ft 108 kts 85°
2026-04-30 21:23 48.32500 11.55317 3794 ft 108 kts 84°
2026-04-30 21:24 48.32609 11.56428 3796 ft 108 kts 84°
2026-04-30 21:24 48.32706 11.57548 3796 ft 107 kts 85°
2026-04-30 21:24 48.32791 11.58669 3730 ft 108 kts 85°
2026-04-30 21:24 48.32878 11.59774 3594 ft 106 kts 85°
2026-04-30 21:25 48.33047 11.61951 3324 ft 105 kts 85°
2026-04-30 21:25 48.33133 11.63038 3173 ft 104 kts 85°
2026-04-30 21:25 48.33216 11.64122 3029 ft 104 kts 85°
2026-04-30 21:26 48.33387 11.66319 2752 ft 107 kts 85°
2026-04-30 21:26 48.33471 11.67437 2552 ft 108 kts 86°
2026-04-30 21:27 48.33637 11.69773 2184 ft 118 kts 84°
2026-04-30 21:27 48.33770 11.71016 2073 ft 123 kts 81°
2026-04-30 21:27 48.33862 11.72301 1878 ft 124 kts 85°
2026-04-30 21:28 48.34060 11.74904 1556 ft 127 kts 83°
2026-04-30 21:28 48.34151 11.76166 1480 ft 110 kts 84°
2026-04-30 21:28 48.34270 11.77423 1481 ft 17 kts 66°
2026-04-30 21:29 48.34330 11.77563 1480 ft 13 kts 52°
2026-04-30 21:29 48.34529 11.77907 1480 ft 7 kts 14°
2026-04-30 21:30 48.34656 11.77831 1484 ft 11 kts 272°
2026-04-30 21:31 48.34699 11.77405 1483 ft 12 kts 360°
2026-04-30 21:31 48.34794 11.77307 1481 ft 9 kts 266°
2026-04-30 21:32 48.34774 11.77020 1483 ft 19 kts 263°
2026-04-30 21:32 48.34758 11.76802 1492 ft 23 kts 263°
2026-04-30 21:32 48.34742 11.76613 1492 ft 17 kts 263°
2026-04-30 21:32 48.34727 11.76413 1485 ft 21 kts 264°
2026-04-30 21:33 48.34711 11.76208 1488 ft 10 kts 263°
2026-04-30 21:33 48.34679 11.75938 1481 ft 5 kts 221°
2026-04-30 21:33 48.34640 11.75927 1487 ft 0 kts 178°
2026-04-30 21:34 48.34632 11.75926 1481 ft 3 kts 182°
2026-04-30 21:34 48.34624 11.75928 1479 ft 0 kts 175°